Time,TemperatureF,DewpointF,PressureIn,WindDirection,WindDirectionDegrees,WindSpeedMPH,WindSpeedGustMPH,Humidity,HourlyPrecipIn,Conditions,Clouds,dailyrainin,SoftwareType,DateUTC
2013-03-01 00:05:00,32.4,26.0,29.98,NNW,345,2.0,-999.0,76,-99.99,,,0.00,weatherlink.com 1.10,2013-03-01 05:05:00,
2013-03-01 00:20:00,32.3,26.0,29.98,NNW,339,0.0,-999.0,76,-99.99,,,0.00,weatherlink.com 1.10,2013-03-01 05:20:00,
2013-03-01 00:34:00,32.3,26.0,29.99,WNW,296,2.0,-999.0,76,-99.99,,,0.00,weatherlink.com 1.10,2013-03-01 05:34:00,
2013-03-01 00:49:00,32.3,26.0,29.98,North,10,1.0,-999.0,77,-99.99,,,0.00,weatherlink.com 1.10,2013-03-01 05:49:00,
2013-03-01 01:04:00,32.3,26.0,29.98,NW,319,2.0,-999.0,77,-99.99,,,0.00,weatherlink.com 1.10,2013-03-01 06:04:00,
2013-03-01 01:19:00,32.1,26.0,29.98,North,355,4.0,-999.0,77,-99.99,,,0.00,weatherlink.com 1.10,2013-03-01 06:19:00,
2013-03-01 01:34:00,32.2,25.0,29.98,NW,321,1.0,-999.0,76,-99.99,,,0.00,weatherlink.com 1.10,2013-03-01 06:34:00,
2013-03-01 01:49:00,32.4,26.0,29.98,NW,326,3.0,-999.0,76,-99.99,,,0.00,weatherlink.com 1.10,2013-03-01 06:49:00,
2013-03-01 02:04:00,32.4,26.0,29.98,NNW,328,1.0,-999.0,76,-99.99,,,0.00,weatherlink.com 1.10,2013-03-01 07:04:00,
2013-03-01 02:19:00,32.3,26.0,29.97,NW,319,2.0,-999.0,76,-99.99,,,0.00,weatherlink.com 1.10,2013-03-01 07:19:00,
2013-03-01 02:34:00,32.2,25.0,29.98,NNW,329,0.0,-999.0,76,-99.99,,,0.00,weatherlink.com 1.10,2013-03-01 07:34:00,
2013-03-01 02:49:00,32.2,25.0,29.97,NNW,347,3.0,-999.0,76,-99.99,,,0.00,weatherlink.com 1.10,2013-03-01 07:49:00,
2013-03-01 03:04:00,32.0,25.0,29.97,NNE,28,2.0,-999.0,76,-99.99,,,0.00,weatherlink.com 1.10,2013-03-01 08:04:00,
2013-03-01 03:19:00,32.0,25.0,29.96,NW,314,1.0,-999.0,76,-99.99,,,0.00,weatherlink.com 1.10,2013-03-01 08:19:00,
2013-03-01 03:34:00,31.9,25.0,29.96,NNW,333,1.0,-999.0,76,-99.99,,,0.00,weatherlink.com 1.10,2013-03-01 08:34:00,
2013-03-01 03:49:00,32.0,25.0,29.96,NW,304,0.0,-999.0,76,-99.99,,,0.00,weatherlink.com 1.10,2013-03-01 08:49:00,
2013-03-01 04:04:00,32.0,25.0,29.96,NW,307,7.0,-999.0,76,-99.99,,,0.00,weatherlink.com 1.10,2013-03-01 09:04:00,
2013-03-01 04:19:00,32.2,25.0,29.97,NNW,340,2.0,-999.0,76,-99.99,,,0.00,weatherlink.com 1.10,2013-03-01 09:19:00,
2013-03-01 04:34:00,32.3,26.0,29.97,North,360,3.0,-999.0,76,-99.99,,,0.00,weatherlink.com 1.10,2013-03-01 09:34:00,
2013-03-01 04:49:00,32.3,26.0,29.98,NNW,340,0.0,-999.0,76,-99.99,,,0.00,weatherlink.com 1.10,2013-03-01 09:49:00,
2013-03-01 05:04:00,32.3,26.0,29.99,NNW,327,0.0,-999.0,76,-99.99,,,0.00,weatherlink.com 1.10,2013-03-01 10:04:00,
2013-03-01 05:19:00,32.3,26.0,29.99,North,5,2.0,-999.0,76,-99.99,,,0.00,weatherlink.com 1.10,2013-03-01 10:19:00,
2013-03-01 05:34:00,32.4,26.0,30.00,NW,308,2.0,-999.0,76,-99.99,,,0.00,weatherlink.com 1.10,2013-03-01 10:34:00,
2013-03-01 05:49:00,32.4,26.0,29.99,WNW,303,0.0,-999.0,76,-99.99,,,0.00,weatherlink.com 1.10,2013-03-01 10:49:00,
2013-03-01 06:04:00,32.4,26.0,30.00,WNW,289,0.0,-999.0,76,-99.99,,,0.00,weatherlink.com 1.10,2013-03-01 11:04:00,
2013-03-01 06:19:00,32.4,26.0,29.99,WNW,289,0.0,-999.0,76,-99.99,,,0.00,weatherlink.com 1.10,2013-03-01 11:19:00,
2013-03-01 06:34:00,32.4,26.0,30.00,WNW,288,0.0,-999.0,76,-99.99,,,0.00,weatherlink.com 1.10,2013-03-01 11:34:00,
2013-03-01 06:49:00,32.5,26.0,29.98,South,191,0.0,-999.0,76,-99.99,,,0.00,weatherlink.com 1.10,2013-03-01 11:49:00,
2013-03-01 07:04:00,32.5,26.0,29.99,South,191,0.0,-999.0,76,-99.99,,,0.00,weatherlink.com 1.10,2013-03-01 12:04:00,
2013-03-01 07:19:00,32.6,26.0,30.00,South,191,0.0,-999.0,75,-99.99,,,0.00,weatherlink.com 1.10,2013-03-01 12:19:00,
2013-03-01 07:34:00,32.6,26.0,30.00,NW,326,0.0,-999.0,75,-99.99,,,0.00,weatherlink.com 1.10,2013-03-01 12:34:00,
2013-03-01 07:49:00,32.8,26.0,30.00,NW,326,0.0,-999.0,76,-99.99,,,0.00,weatherlink.com 1.10,2013-03-01 12:49:00,
2013-03-01 08:04:00,32.9,26.0,30.00,WNW,283,0.0,-999.0,76,-99.99,,,0.00,weatherlink.com 1.10,2013-03-01 13:04:00,
2013-03-01 08:19:00,33.2,26.0,30.01,WNW,294,1.0,-999.0,76,-99.99,,,0.00,weatherlink.com 1.10,2013-03-01 13:19:00,
2013-03-01 08:34:00,33.3,27.0,30.01,NW,318,1.0,-999.0,76,-99.99,,,0.00,weatherlink.com 1.10,2013-03-01 13:34:00,
2013-03-01 08:49:00,33.5,27.0,30.01,WNW,301,1.0,-999.0,76,-99.99,,,0.00,weatherlink.com 1.10,2013-03-01 13:49:00,
2013-03-01 09:04:00,33.9,27.0,30.02,WNW,298,0.0,-999.0,76,-99.99,,,0.00,weatherlink.com 1.10,2013-03-01 14:04:00,
2013-03-01 09:19:00,34.3,27.0,30.01,NW,304,2.0,-999.0,76,-99.99,,,0.00,weatherlink.com 1.10,2013-03-01 14:19:00,
2013-03-01 09:34:00,34.6,28.0,30.01,NW,312,1.0,-999.0,77,-99.99,,,0.00,weatherlink.com 1.10,2013-03-01 14:34:00,
2013-03-01 09:49:00,35.2,28.0,30.01,NW,312,4.0,-999.0,76,-99.99,,,0.00,weatherlink.com 1.10,2013-03-01 14:49:00,
2013-03-01 10:04:00,35.2,28.0,30.02,NNW,328,2.0,-999.0,76,-99.99,,,0.00,weatherlink.com 1.10,2013-03-01 15:04:00,
2013-03-01 10:19:00,35.3,28.0,30.02,WSW,254,2.0,-999.0,76,-99.99,,,0.00,weatherlink.com 1.10,2013-03-01 15:19:00,
2013-03-01 10:34:00,35.6,29.0,30.02,WNW,293,2.0,-999.0,76,-99.99,,,0.00,weatherlink.com 1.10,2013-03-01 15:34:00,
2013-03-01 10:49:00,36.2,29.0,30.02,ENE,61,0.0,-999.0,76,-99.99,,,0.00,weatherlink.com 1.10,2013-03-01 15:49:00,
2013-03-01 11:04:00,36.5,29.0,30.02,NW,325,4.0,-999.0,74,-99.99,,,0.00,weatherlink.com 1.10,2013-03-01 16:04:00,
2013-03-01 11:19:00,36.8,30.0,30.02,North,355,0.0,-999.0,75,-99.99,,,0.00,weatherlink.com 1.10,2013-03-01 16:19:00,
2013-03-01 11:34:00,37.2,29.0,30.02,WNW,289,2.0,-999.0,73,-99.99,,,0.00,weatherlink.com 1.10,2013-03-01 16:34:00,
2013-03-01 11:49:00,37.2,29.0,30.02,West,275,3.0,-999.0,72,-99.99,,,0.00,weatherlink.com 1.10,2013-03-01 16:49:00,
2013-03-01 12:04:00,38.1,30.0,30.01,WNW,291,2.0,-999.0,72,-99.99,,,0.00,weatherlink.com 1.10,2013-03-01 17:04:00,
2013-03-01 12:20:00,38.5,30.0,30.01,NW,314,3.0,-999.0,71,-99.99,,,0.00,weatherlink.com 1.10,2013-03-01 17:20:00,
2013-03-01 12:34:00,38.6,30.0,30.00,WNW,292,1.0,-999.0,72,-99.99,,,0.00,weatherlink.com 1.10,2013-03-01 17:34:00,
2013-03-01 12:50:00,38.9,31.0,30.01,WNW,284,0.0,-999.0,72,-99.99,,,0.00,weatherlink.com 1.10,2013-03-01 17:50:00,
2013-03-01 13:05:00,39.2,31.0,30.00,WNW,283,0.0,-999.0,71,-99.99,,,0.00,weatherlink.com 1.10,2013-03-01 18:05:00,
2013-03-01 13:20:00,39.8,31.0,29.99,NNW,339,2.0,-999.0,71,-99.99,,,0.00,weatherlink.com 1.10,2013-03-01 18:20:00,
2013-03-01 13:35:00,39.9,30.0,29.99,NW,306,4.0,-999.0,69,-99.99,,,0.00,weatherlink.com 1.10,2013-03-01 18:35:00,
2013-03-01 13:50:00,39.2,30.0,29.98,West,273,2.0,-999.0,70,-99.99,,,0.00,weatherlink.com 1.10,2013-03-01 18:50:00,
2013-03-01 14:05:00,38.8,30.0,29.98,NW,309,2.0,-999.0,71,-99.99,,,0.00,weatherlink.com 1.10,2013-03-01 19:05:00,
2013-03-01 14:20:00,38.8,30.0,29.98,West,265,0.0,-999.0,71,-99.99,,,0.00,weatherlink.com 1.10,2013-03-01 19:20:00,
2013-03-01 14:35:00,39.2,31.0,29.98,NNE,22,0.0,-999.0,71,-99.99,,,0.00,weatherlink.com 1.10,2013-03-01 19:35:00,
2013-03-01 14:50:00,39.7,31.0,29.97,WNW,289,3.0,-999.0,70,-99.99,,,0.00,weatherlink.com 1.10,2013-03-01 19:50:00,
2013-03-01 15:05:00,38.9,30.0,29.98,NW,319,1.0,-999.0,70,-99.99,,,0.00,weatherlink.com 1.10,2013-03-01 20:05:00,
2013-03-01 15:20:00,38.5,30.0,29.98,NW,323,0.0,-999.0,72,-99.99,,,0.00,weatherlink.com 1.10,2013-03-01 20:20:00,
2013-03-01 15:35:00,38.5,31.0,29.98,East,85,1.0,-999.0,73,-99.99,,,0.00,weatherlink.com 1.10,2013-03-01 20:35:00,
2013-03-01 15:50:00,38.7,30.0,29.98,NNW,338,1.0,-999.0,72,-99.99,,,0.00,weatherlink.com 1.10,2013-03-01 20:50:00,
2013-03-01 16:05:00,38.8,30.0,29.97,WSW,258,1.0,-999.0,71,-99.99,,,0.00,weatherlink.com 1.10,2013-03-01 21:05:00,
2013-03-01 16:20:00,38.9,30.0,29.97,WNW,288,0.0,-999.0,70,-99.99,,,0.00,weatherlink.com 1.10,2013-03-01 21:20:00,
2013-03-01 16:35:00,38.4,29.0,29.97,WNW,303,5.0,-999.0,70,-99.99,,,0.00,weatherlink.com 1.10,2013-03-01 21:35:00,
2013-03-01 16:50:00,38.0,29.0,29.98,NW,308,0.0,-999.0,71,-99.99,,,0.00,weatherlink.com 1.10,2013-03-01 21:50:00,
2013-03-01 17:05:00,38.5,30.0,29.98,NW,324,0.0,-999.0,72,-99.99,,,0.00,weatherlink.com 1.10,2013-03-01 22:05:00,
2013-03-01 17:20:00,38.4,29.0,29.99,NNW,327,2.0,-999.0,69,-99.99,,,0.00,weatherlink.com 1.10,2013-03-01 22:20:00,
2013-03-01 17:35:00,38.2,28.0,29.99,NW,309,3.0,-999.0,68,-99.99,,,0.00,weatherlink.com 1.10,2013-03-01 22:35:00,
2013-03-01 17:50:00,37.9,29.0,29.99,ESE,102,1.0,-999.0,70,-99.99,,,0.00,weatherlink.com 1.10,2013-03-01 22:50:00,
2013-03-01 18:05:00,37.5,28.0,29.99,NNW,330,1.0,-999.0,69,-99.99,,,0.00,weatherlink.com 1.10,2013-03-01 23:05:00,
2013-03-01 18:20:00,37.2,29.0,29.99,NNW,333,0.0,-999.0,71,-99.99,,,0.00,weatherlink.com 1.10,2013-03-01 23:20:00,
2013-03-01 18:35:00,37.0,28.0,29.99,WSW,244,0.0,-999.0,71,-99.99,,,0.00,weatherlink.com 1.10,2013-03-01 23:35:00,
2013-03-01 18:50:00,36.9,29.0,30.00,NW,323,0.0,-999.0,72,-99.99,,,0.00,weatherlink.com 1.10,2013-03-01 23:50:00,
2013-03-01 19:05:00,36.7,28.0,30.01,WNW,291,1.0,-999.0,72,-99.99,,,0.00,weatherlink.com 1.10,2013-03-02 00:05:00,
2013-03-01 19:20:00,36.5,29.0,30.00,NNW,342,0.0,-999.0,73,-99.99,,,0.00,weatherlink.com 1.10,2013-03-02 00:20:00,
2013-03-01 19:35:00,36.5,29.0,30.01,WNW,290,1.0,-999.0,74,-99.99,,,0.00,weatherlink.com 1.10,2013-03-02 00:35:00,
2013-03-01 19:50:00,36.3,29.0,30.01,NW,312,0.0,-999.0,74,-99.99,,,0.00,weatherlink.com 1.10,2013-03-02 00:50:00,
2013-03-01 20:05:00,36.2,29.0,30.01,NW,304,1.0,-999.0,75,-99.99,,,0.00,weatherlink.com 1.10,2013-03-02 01:05:00,
2013-03-01 20:20:00,36.0,29.0,30.01,NNW,338,2.0,-999.0,75,-99.99,,,0.00,weatherlink.com 1.10,2013-03-02 01:20:00,
2013-03-01 20:34:00,35.8,29.0,30.01,NNW,327,1.0,-999.0,75,-99.99,,,0.00,weatherlink.com 1.10,2013-03-02 01:34:00,
2013-03-01 20:50:00,35.7,29.0,30.01,NNW,333,0.0,-999.0,76,-99.99,,,0.00,weatherlink.com 1.10,2013-03-02 01:50:00,
2013-03-01 21:05:00,35.6,29.0,30.01,North,355,0.0,-999.0,76,-99.99,,,0.00,weatherlink.com 1.10,2013-03-02 02:05:00,
2013-03-01 21:20:00,35.5,29.0,30.01,NW,309,0.0,-999.0,76,-99.99,,,0.00,weatherlink.com 1.10,2013-03-02 02:20:00,
2013-03-01 21:50:00,35.4,29.0,30.01,NW,321,2.0,-999.0,76,-99.99,,,0.00,weatherlink.com 1.10,2013-03-02 02:50:00,
2013-03-01 22:05:00,35.3,28.0,30.02,NNW,343,0.0,-999.0,76,-99.99,,,0.00,weatherlink.com 1.10,2013-03-02 03:05:00,
2013-03-01 22:20:00,35.3,28.0,30.01,NW,320,1.0,-999.0,76,-99.99,,,0.00,weatherlink.com 1.10,2013-03-02 03:20:00,
2013-03-01 22:35:00,35.2,29.0,30.01,NNW,335,2.0,-999.0,77,-99.99,,,0.00,weatherlink.com 1.10,2013-03-02 03:35:00,
2013-03-01 22:50:00,35.1,28.0,30.01,North,9,0.0,-999.0,76,-99.99,,,0.00,weatherlink.com 1.10,2013-03-02 03:50:00,
2013-03-01 23:05:00,34.9,28.0,30.01,North,5,0.0,-999.0,77,-99.99,,,0.00,weatherlink.com 1.10,2013-03-02 04:05:00,
2013-03-01 23:20:00,34.8,28.0,30.00,NNW,336,0.0,-999.0,76,-99.99,,,0.00,weatherlink.com 1.10,2013-03-02 04:20:00,
2013-03-01 23:35:00,34.6,28.0,30.00,NNW,331,1.0,-999.0,77,-99.99,,,0.00,weatherlink.com 1.10,2013-03-02 04:35:00,
2013-03-01 23:50:00,34.6,28.0,30.00,NNW,331,0.0,-999.0,76,-99.99,,,0.00,weatherlink.com 1.10,2013-03-02 04:50:00,